SA3VCC-13 Weather Reports


time (UTC)temp
F
wind
direction
speed
knots
gust
knots
rain 1hr
in
rain 24hr
in
rain mn
in
humidity
%
barometer
mb
20260902185007 58 222 9.6 11.3 0.00 0.00 0.00 7 999.3
20260902183007 60 222 9.6 12.2 0.00 0.00 0.00 6 999.1
20260902182007 60 222 9.6 13.9 0.00 0.00 0.00 6 999.1
20260902181007 61 221 9.6 13.0 0.00 0.00 0.00 6 999.1
20260902180008 62 222 9.6 12.2 0.00 0.00 0.00 6 999.1
20260902175007 63 223 9.6 12.2 0.00 0.00 0.00 6 999.0
20260902174007 63 224 9.6 12.2 0.00 0.00 0.00 6 998.9
20260902173006 64 222 9.6 12.2 0.00 0.00 0.00 6 998.9
20260902172006 64 224 9.6 14.8 0.00 0.00 0.00 6 998.8
20260902171006 65 225 9.6 12.2 0.00 0.00 0.00 6 998.8
20260902170006 66 224 10.4 13.9 0.00 0.00 0.00 6 998.8
20260902165006 66 223 9.6 15.6 0.00 0.00 0.00 6 998.8
20260902164006 67 225 9.6 15.6 0.00 0.00 0.00 6 998.7
20260902163006 67 224 10.4 13.9 0.00 0.00 0.00 6 998.6
20260902162006 68 220 11.3 15.6 0.00 0.00 0.00 6 998.6
20260902161006 68 221 12.2 16.5 0.00 0.00 0.00 6 998.6
20260902160009 68 225 10.4 15.6 0.00 0.00 0.00 6 998.6
20260902155006 68 225 10.4 19.1 0.00 0.00 0.00 6 998.6
20260902154006 68 219 10.4 15.6 0.00 0.00 0.00 6 998.6
20260902153006 69 219 12.2 17.4 0.00 0.00 0.00 6 998.6
20260902152006 69 219 11.3 16.5 0.00 0.00 0.00 6 998.6
20260902151006 69 218 11.3 18.2 0.00 0.00 0.00 7 998.7
20260902150006 69 217 10.4 14.8 0.00 0.00 0.00 7 998.7
20260902145006 70 220 12.2 15.6 0.00 0.00 0.00 7 998.8
20260902144007 70 220 11.3 13.9 0.00 0.00 0.00 7 998.8
20260902143006 70 218 12.2 17.4 0.00 0.00 0.00 7 998.8
20260902142006 69 217 11.3 15.6 0.00 0.00 0.00 7 999.0
20260902141006 69 221 9.6 13.9 0.00 0.00 0.00 7 999.1
20260902140006 69 219 11.3 15.6 0.00 0.00 0.00 7 999.3
20260902135006 70 218 11.3 15.6 0.00 0.00 0.00 7 999.3
20260902134006 70 217 11.3 16.5 0.00 0.00 0.00 7 999.5
20260902133006 71 218 11.3 18.2 0.00 0.00 0.00 6 999.5
20260902132006 72 217 12.2 15.6 0.00 0.00 0.00 6 999.4
20260902131006 72 221 10.4 15.6 0.00 0.00 0.00 6 999.3
20260902130006 72 221 9.6 13.9 0.00 0.00 0.00 6 999.4
20260902125006 72 224 10.4 14.8 0.00 0.00 0.00 6 999.4
20260902124006 72 229 10.4 15.6 0.00 0.00 0.00 6 999.5
20260902123006 72 220 11.3 14.8 0.00 0.00 0.00 6 999.6
20260902122006 72 228 11.3 15.6 0.00 0.00 0.00 6 999.8
20260902121006 72 224 11.3 19.1 0.00 0.00 0.00 6 999.8
20260902120006 71 233 9.6 12.2 0.00 0.00 0.00 6 999.9
20260902115006 71 231 12.2 18.2 0.00 0.00 0.00 6 1000.0
20260902114006 71 222 11.3 16.5 0.00 0.00 0.00 7 1000.0
20260902113006 71 218 12.2 17.4 0.00 0.00 0.00 7 1000.0
20260902112007 71 222 11.3 20.9 0.00 0.00 0.00 7 1000.1
20260902111007 71 223 10.4 15.6 0.00 0.00 0.00 7 1000.1
20260902110008 70 219 11.3 18.2 0.00 0.00 0.00 7 1000.1
20260902105007 69 226 11.3 13.9 0.00 0.00 0.00 7 1000.2
20260902104007 68 220 11.3 15.6 0.00 0.00 0.00 7 1000.2
20260902103007 67 226 10.4 13.9 0.00 0.00 0.00 7 1000.3
20260902102007 66 232 9.6 15.6 0.00 0.00 0.00 7 1000.4
20260902101007 66 225 10.4 13.9 0.00 0.00 0.00 7 1000.5
20260902100007 66 224 9.6 12.2 0.00 0.00 0.00 8 1000.5
20260902095007 66 229 10.4 15.6 0.00 0.00 0.00 7 1000.6
20260902094006 66 231 10.4 13.0 0.00 0.00 0.00 7 1000.6
20260902093006 66 226 9.6 13.9 0.00 0.00 0.00 7 1000.6
20260902092006 66 234 11.3 16.5 0.00 0.00 0.00 7 1000.6
20260902091006 66 230 11.3 19.1 0.00 0.00 0.00 8 1000.5
20260902090006 65 232 11.3 16.5 0.00 0.00 0.00 8 1000.4
20260902085006 65 230 10.4 13.9 0.00 0.00 0.00 8 1000.4
20260902084006 64 221 11.3 16.5 0.00 0.00 0.00 8 1000.5
20260902083006 64 221 11.3 15.6 0.00 0.00 0.00 8 1000.5
20260902082006 63 225 10.4 13.9 0.00 0.00 0.00 9 1000.5
20260902081006 62 230 10.4 13.9 0.00 0.00 0.00 9 1000.5
20260902080006 60 232 9.6 14.8 0.00 0.00 0.00 9 1000.5
20260902075006 60 234 9.6 12.2 0.00 0.00 0.00 9 1000.6
20260902074006 59 236 9.6 12.2 0.00 0.00 0.00 9 1000.7
20260902073006 58 229 9.6 15.6 0.00 0.00 0.00 9 1000.7
20260902072006 56 230 8.7 12.2 0.00 0.00 0.00 9 1000.6
20260902071006 55 233 8.7 11.3 0.00 0.00 0.00 9 1000.7
20260902070007 55 224 8.7 11.3 0.00 0.00 0.00 9 1000.6
20260902065006 54 222 8.7 12.2 0.00 0.00 0.00 9 1000.6
20260902064006 54 222 8.7 11.3 0.00 0.00 0.00 9 1000.7
20260902063006 53 222 7.8 11.3 0.00 0.00 0.00 9 1000.8
20260902062006 53 226 7.8 9.6 0.00 0.00 0.00 9 1000.8
20260902061006 52 227 7.8 11.3 0.00 0.00 0.00 9 1000.9
20260902060006 52 225 7.8 10.4 0.00 0.00 0.00 9 1000.8
20260902055006 51 227 7.8 10.4 0.00 0.00 0.00 9 1000.8
20260902054006 51 223 7.8 11.3 0.00 0.00 0.00 9 1000.8
20260902053006 50 220 8.7 12.2 0.00 0.00 0.00 9 1000.8
20260902052006 50 223 7.8 11.3 0.00 0.00 0.00 9 1000.7
20260902051006 50 223 10.4 13.9 0.00 0.00 0.00 9 1000.8
20260902050008 49 222 12.2 16.5 0.00 0.00 0.00 9 1000.8
20260902045006 49 224 11.3 15.6 0.00 0.00 0.00 9 1000.8
20260902044006 49 224 11.3 15.6 0.00 0.00 0.00 9 1000.8
20260902043006 48 225 10.4 13.9 0.00 0.00 0.00 9 1000.8
20260902042007 48 224 8.7 11.3 0.00 0.00 0.00 9 1000.9
20260902041007 48 225 7.8 11.3 0.00 0.00 0.00 9 1000.8
20260902040007 48 225 7.8 10.4 0.00 0.00 0.00 9 1000.9
20260902035007 48 226 7.8 10.4 0.00 0.00 0.00 9 1001.0
20260902034007 49 226 7.8 9.6 0.00 0.00 0.00 9 1001.0
20260902033007 49 225 7.8 9.6 0.00 0.00 0.00 9 1001.1
20260902032007 49 225 7.0 9.6 0.00 0.00 0.00 9 1001.1
20260902031007 49 225 7.0 9.6 0.00 0.00 0.00 9 1001.2
20260902030006 49 224 7.8 9.6 0.00 0.00 0.00 9 1001.3
20260902025006 49 226 7.0 9.6 0.00 0.00 0.00 9 1001.2
20260902024006 49 227 7.0 8.7 0.00 0.00 0.00 9 1001.3
20260902023006 49 226 7.0 8.7 0.00 0.00 0.00 9 1001.4
20260902022006 49 225 7.8 12.2 0.00 0.00 0.00 9 1001.4
20260902021006 49 226 7.8 9.6 0.00 0.00 0.00 9 1001.4
20260902020006 50 225 7.8 9.6 0.00 0.00 0.00 9 1001.4
20260902015006 50 227 7.0 7.8 0.00 0.00 0.00 9 1001.3
20260902014006 50 226 7.8 10.4 0.00 0.00 0.00 9 1001.5
20260902013006 50 226 7.0 9.6 0.00 0.00 0.00 9 1001.5
20260902012006 50 226 7.8 9.6 0.00 0.00 0.00 9 1001.5
20260902011006 50 226 7.8 9.6 0.00 0.00 0.00 8 1001.5
20260902010006 51 226 7.8 9.6 0.00 0.00 0.00 8 1001.5
20260902005006 51 225 7.8 10.4 0.00 0.00 0.00 8 1001.5
20260902004006 51 225 7.8 10.4 0.00 0.00 0.00 8 1001.5
20260902003006 51 226 7.8 11.3 0.00 0.00 0.00 8 1001.6
20260902002006 51 226 7.8 9.6 0.00 0.00 0.00 8 1001.6
20260902001006 51 227 7.8 9.6 0.00 0.00 0.00 8 1001.7
20260902000006 51 227 7.8 9.6 0.00 0.00 0.00 8 1001.8